Location: Ar Ranvel
(48.3000°N, 4.8833°W)
Time: 03:41:57
(UTC+00:00)

Cosmos 2322 Rocket - Pass Details

Date: 29 October 2021
Orbit: 832 x 851 km, 71.0° (Epoch: 01 December)

Event Time Altitude Azimuth Distance (km) Brightness Sun altitude
Rises 20:18:14 0° 272° (W) 3,380 6.4 -32.4°
Reaches altitude 10° 20:22:03 10° 298° (WNW) 2,452 5.4 -33.0°
Maximum altitude 20:24:49 14° 328° (NNW) 2,200 4.8 -33.5°
Drops below altitude 10° 20:27:37 10° 358° (N) 2,462 4.8 -33.9°
Enters shadow 20:29:02 - 9° (N) 2,754 5.0 -34.1°
